Orbital Elements at Epoch 2459200.5 (2020-Dec-17.0) TDB
Reference: JPL 22 (heliocentric ecliptic J2000)
Element | Value | Uncertainty (1-sigma) | Units |
e | .120877022081802 | 2.9933e-08 | |
a | 2.205452222174102 | 6.2824e-09 | au |
q | 1.938863725214003 | 6.7995e-08 | au |
i | 7.162073785877786 | 2.8929e-06 | deg |
node | 106.4165277412026 | 2.6447e-05 | deg |
peri | 304.7823896890015 | 2.9831e-05 | deg |
M | 352.9742538035118 | 1.2949e-05 | deg |
tp | 2459223.847203237570 (2021-Jan-09.34720324) | 4.3028e-05 | TDB |
period | 1196.313235699651 3.28 | 5.1117e-06 1.4e-08 | d yr |
n | .3009245315165788 | 1.2858e-09 | deg/d |
Q | 2.4720407191342 | 7.0418e-09 | au |
|
| | Orbit Determination Parameters
Additional Information
|